{"data":{"norad_id":64467,"epoch":"2026-09-19T19:06:11.269728Z","epoch_age_seconds":79057,"freshness":"FRESH","line1":"1 64467U 25131A   26262.79596377 -.00000360  00000+0  00000+0 0  9998","line2":"2 64467   0.1731  89.8253 0007791 337.5724 337.2524  1.00469316  4506","mean_motion":1.00469316,"eccentricity":0.0007791,"inclination_deg":0.1731,"raan_deg":89.8253,"arg_perigee_deg":337.5724,"mean_anomaly_deg":337.2524,"bstar":0,"rev_number":450,"period_min":1433.2734185231,"perigee_km":35698.503127227,"apogee_km":35764.118068474,"semimajor_km":42109.447597851,"source":"CELESTRAK","updated_at":"2026-09-20T09:00:35.344894Z"}}